Malaga, Spain

5:06 PM CEST on September 21, 2017 (GMT +0200)
Malaga

Weather History for LEMG - January, 2014

Change the Weather History Date:

Monday, January 6, 2014

  Actual Average Record
Temperature  
Mean Temperature 56 °F -  
Max Temperature 70 °F 59 °F 78 °F (2012)
Min Temperature 42 °F 43 °F 37 °F (2000)
Degree Days  
Heating Degree Days 9    
Growing Degree Days 6 (Base 50)    
Moisture  
Dew Point 42 °F    
Average Humidity 59    
Maximum Humidity 87    
Minimum Humidity 28    
Precipitation  
Precipitation 0.00 in 0.11 in - ()
Sea Level Pressure  
Sea Level Pressure 30.14 in    
Wind  
Wind Speed 8 mph ()    
Max Wind Speed 18 mph    
Max Gust Speed -    
Visibility 17.9 miles    
Events      
Averages and records for this station are not official NWS values.
T = Trace of Precipitation, MM = Missing Value Source: Averaged Metar Reports

Daily Weather History Graph

Daily Weather History Graph

Search for Another Location

Airport or City:

Trip Planner

Search our weather history database for the weather conditions in past years. The results will help you decide how hot, cold, wet, or windy it might be!

Date:

Astronomy

Jan. 06, 2014 Rise Set
Actual Time 8:30 AM CET 6:16 PM CET
Civil Twilight 8:02 AM CET 6:45 PM CET
Nautical Twilight 7:30 AM CET 7:17 PM CET
Astronomical Twilight 6:58 AM CET 7:49 PM CET
Moon 11:48 AM CET (1/6) No Moon Set
Length of Visible Light 10h 43m
Length of Day
9h 46m
Waxing Crescent, 32% of the Moon is Illuminated
Jan 6
Waxing Crescent
Jan 8
First Quarter
Jan 16
Full
Jan 24
Last Quarter
Jan 30
New

Hourly Weather History & Observations

Time (CET) Temp. Windchill Dew Point Humidity Pressure Visibility Wind Dir Wind Speed Gust Speed Precip Events Conditions
12:00 AM 57 °F - 41 °F 43% 30.19 in - West 18.4 mph - -  
12:00 AM 57.2 °F - 41.0 °F 55% 30.18 in - West 17.3 mph - N/A   Clear
12:30 AM 57.2 °F - 41.0 °F 55% 30.18 in - WNW 16.1 mph - N/A   Clear
1:00 AM 55 °F - 40 °F 46% 30.18 in 16 mi NW 9.2 mph - -   Clear
1:00 AM 53.6 °F - 41.0 °F 62% 30.15 in - NW 9.2 mph - N/A   Clear
1:30 AM 51.8 °F - 41.0 °F 67% 30.15 in - NW 9.2 mph - N/A   Clear
2:00 AM 51 °F - 40 °F 57% 30.17 in - WNW 9.2 mph - -  
2:00 AM 50.0 °F - 41.0 °F 71% 30.15 in - WNW 9.2 mph - N/A   Clear
2:30 AM 48.2 °F - 41.0 °F 76% 30.15 in - NW 6.9 mph - N/A   Clear
3:00 AM 51 °F - 41 °F 59% 30.18 in - WNW 9.2 mph - -  
3:00 AM 48.2 °F - 41.0 °F 76% 30.15 in - NW 8.1 mph - N/A   Clear
3:30 AM 48.2 °F - 41.0 °F 76% 30.15 in - WNW 11.5 mph - N/A   Clear
4:00 AM 49 °F - 40 °F 62% 30.17 in 16 mi WNW 9.2 mph - -   Clear
4:00 AM 46.4 °F 42.4 °F 41.0 °F 81% 30.15 in - WNW 8.1 mph - N/A   Clear
4:30 AM 46.4 °F 42.4 °F 41.0 °F 81% 30.15 in - WNW 8.1 mph - N/A   Clear
5:00 AM 47 °F - 40 °F 71% 30.16 in - WNW 10.4 mph - -  
5:00 AM 46.4 °F 41.5 °F 39.2 °F 76% 30.15 in - WNW 10.4 mph - N/A   Clear
5:30 AM 44.6 °F 40.7 °F 39.2 °F 81% 30.12 in - NW 6.9 mph - N/A   Clear
6:00 AM 46 °F - 40 °F 71% 30.15 in - WNW 9.2 mph - -  
6:00 AM 44.6 °F 40.2 °F 39.2 °F 81% 30.12 in - NW 8.1 mph - N/A   Clear
6:30 AM 44.6 °F 40.2 °F 39.2 °F 81% 30.12 in - NW 8.1 mph - N/A   Clear
7:00 AM 46 °F - 38 °F 66% 30.14 in 16 mi WNW 6.9 mph - -  
7:00 AM 42.8 °F 38.6 °F 39.2 °F 87% 30.12 in - WNW 6.9 mph - N/A   Clear
7:30 AM 44.6 °F 39.7 °F 37.4 °F 76% 30.12 in - WNW 9.2 mph - N/A   Clear
8:00 AM 44 °F - 38 °F 71% 30.16 in - WNW 8.1 mph - -  
8:00 AM 42.8 °F 38.0 °F 37.4 °F 81% 30.12 in - WNW 8.1 mph - N/A   Clear
8:30 AM 42.8 °F 39.3 °F 37.4 °F 81% 30.15 in - WNW 5.8 mph - N/A   Clear
9:00 AM 44 °F - 37 °F 70% 30.17 in - WNW 8.1 mph - -  
9:00 AM 42.8 °F 38.6 °F 37.4 °F 81% 30.15 in - WNW 6.9 mph - N/A   Clear
9:30 AM 44.6 °F 41.4 °F 37.4 °F 76% 30.15 in - WNW 5.8 mph - N/A   Clear
10:00 AM 47 °F - 37 °F 60% 30.17 in 19 mi WNW 6.9 mph - -  
10:00 AM 46.4 °F 43.5 °F 39.2 °F 76% 30.15 in - WNW 5.8 mph - N/A   Clear
10:30 AM 50.0 °F - 39.2 °F 66% 30.15 in - WNW 6.9 mph - N/A   Clear
11:00 AM 53 °F - 39 °F 47% 30.19 in - NW 3.5 mph - -  
11:00 AM 51.8 °F - 39.2 °F 62% 30.18 in - NW 3.5 mph - N/A   Clear
11:30 AM 55.4 °F - 39.2 °F 54% 30.18 in - WNW 4.6 mph - N/A   Clear
12:00 PM 59 °F - 38 °F 33% 30.18 in - WNW 2.3 mph - -  
12:00 PM 59.0 °F - 39.2 °F 48% 30.15 in - Variable 2.3 mph - N/A   Clear
12:30 PM 62.6 °F - 39.2 °F 42% 30.15 in - Calm Calm - N/A   Clear
1:00 PM 65 °F - 49 °F 46% 30.15 in 19 mi Calm Calm - -  
1:00 PM 62.6 °F - 48.2 °F 59% 30.15 in - Variable 1.2 mph - N/A   Clear
1:30 PM 62.6 °F - 50.0 °F 63% 30.12 in - Variable 2.3 mph - N/A   Clear
2:00 PM 66 °F - 50 °F 45% 30.12 in - ESE 5.8 mph - -  
2:00 PM 62.6 °F - 50.0 °F 63% 30.12 in - ESE 4.6 mph - N/A   Clear
2:30 PM 66.2 °F - 48.2 °F 52% 30.09 in - Variable 2.3 mph - N/A   Clear
3:00 PM 69 °F - 48 °F 36% 30.10 in - ESE 3.5 mph - -  
3:00 PM 66.2 °F - 48.2 °F 52% 30.09 in - Variable 2.3 mph - N/A   Clear
3:30 PM 66.2 °F - 48.2 °F 52% 30.09 in - Variable 2.3 mph - N/A   Clear
4:00 PM 70 °F - 48 °F 34% 30.09 in 19 mi SE 2.3 mph - -  
4:00 PM 68.0 °F - 48.2 °F 49% 30.09 in - Variable 2.3 mph - N/A   Clear
4:30 PM 68.0 °F - 48.2 °F 49% 30.09 in - NE 3.5 mph - N/A   Clear
5:00 PM 66 °F - 49 °F 44% 30.10 in - NNE 4.6 mph - -  
5:00 PM 62.6 °F - 48.2 °F 59% 30.09 in - NNE 4.6 mph - N/A   Clear
5:30 PM 62.6 °F - 48.2 °F 59% 30.09 in - Variable 2.3 mph - N/A   Clear
6:00 PM 62 °F - 49 °F 52% 30.11 in - Calm Calm - -  
6:00 PM 60.8 °F - 48.2 °F 63% 30.09 in - Calm Calm - N/A   Clear
6:30 PM 57.2 °F - 48.2 °F 72% 30.09 in - Calm Calm - N/A   Clear
7:00 PM 58 °F - 45 °F 53% 30.12 in 19 mi WNW 2.3 mph - -  
7:00 PM 57.2 °F - 46.4 °F 67% 30.09 in - Variable 1.2 mph - N/A   Clear
7:30 PM 62.6 °F - 33.8 °F 34% 30.12 in - West 10.4 mph - N/A   Clear
8:00 PM 63 °F - 38 °F 28% 30.13 in - West 15.0 mph - -  
8:00 PM 62.6 °F - 39.2 °F 42% 30.12 in - West 13.8 mph - N/A   Clear
8:30 PM 62.6 °F - 39.2 °F 42% 30.12 in - West 15.0 mph - N/A   Clear
9:00 PM 62 °F - 40 °F 32% 30.14 in - West 13.8 mph - -  
9:00 PM 60.8 °F - 41.0 °F 48% 30.12 in - West 13.8 mph - N/A   Clear
9:30 PM 60.8 °F - 41.0 °F 48% 30.12 in - West 15.0 mph - N/A   Clear
10:00 PM 57 °F - 41 °F 44% 30.15 in 19 mi WNW 10.4 mph - -  
10:00 PM 53.6 °F - 41.0 °F 62% 30.12 in - NW 9.2 mph - N/A   Clear
10:30 PM 55.4 °F - 41.0 °F 58% 30.12 in - WNW 11.5 mph - N/A   Clear
11:00 PM 56 °F - 42 °F 47% 30.16 in - NW 9.2 mph - -  
11:00 PM 53.6 °F - 41.0 °F 62% 30.15 in - NW 8.1 mph - N/A   Clear
11:30 PM 53.6 °F - 41.0 °F 62% 30.15 in - WNW 11.5 mph - N/A   Clear